33P/Daniel (2016)

Japanese version
Home page
Updated on May 22, 2017

---------------------------------------------------------------------

* Profile

* Pictures

* Orbital Elements

Epoch 2016 Sept. 9.0 TT = JDT 2457640.5
T 2016 Aug. 22.46412 TT                                 MPC
q   2.1602178            (2000.0)            P               Q
n   0.12214828     Peri.   19.06992     +0.09999406     -0.93163873
a   4.0229486      Node    66.49100     +0.85619899     -0.09830203
e   0.4630262      Incl.   22.39437     +0.50687718     +0.34983709
P   8.07
From 264 observations 1992 July 29-2009 Apr. 29, mean residual 0".8.
     Nongravitational parameters A1 = +0.39, A2 = +0.0454.

* Magnitudes Graph

        m1 = 11.5 + 5 log d + 15.0 log r

---------------------------------------------------------------------

The orbital elements are published on M.P.E.C. 2013-O31.
The magnitudes graphs are made with Comet for Windows.

---------------------------------------------------------------------

Copyright(C) Seiichi Yoshida (comet@aerith.net). All rights reserved.